Home   Weather   Acworth   Past weeks

Flag for USA Past Weather in Acworth, Georgia, USA — Yesterday and Last 2 Weeks

Now
64 °F

Clear.


Feels Like: 64 °F
Forecast: 66 / 92 °F
Wind: No wind

Location: Cartersville Airport

Current Time: Sep 25, 2016 at 6:50:51 AM

Latest Report: Sep 25, 2016 at 5:53 AM


Visibility: 10 mi

Pressure: 30.05 "Hg

Humidity: 97%

Dew Point: 63 °F

Location of AcworthLocation

Past Weather in Acworth — Graph

°F

Acworth Temperature Yesterday

Maximum temperature yesterday: 92 °F (at 3:53 PM)
Minimum temperature yesterday: 63 °F (at 5:53 AM)
Average temperature yesterday: 76 °F

High & Low Weather Summary for the Past Weeks

 TemperatureHumidityPressure
High96 °F (Sep 15, 3:53 PM)97% (Sep 14, 6:53 AM)30.17 "Hg (Sep 14, 6:53 AM)
Low63 °F (Sep 12, 3:53 AM)24% (Sep 15, 5:53 PM)29.93 "Hg (Sep 18, 5:53 PM)
Average77 °F69%30.05 "Hg
* Reported Sep 10 5:53 AM — Sep 25 5:53 AM, Acworth, Weather by CustomWeather, © 2016

Note: Actual official high and low records may vary slightly from our data, if they occured in-between our weather recording intervals... More about our weather records

Advertising

Acworth Weather History for the Previous 24 Hours

Scroll right to see more
 ConditionsComfort  
Time TempWeatherWind HumidityBarometerVisibility
5:53 AM
Sun, Sep 25
64 °FClear.No wind97%30.05 "Hg10 mi
4:53 AM65 °FClear.No wind97%30.04 "Hg10 mi
3:53 AM66 °FClear.No wind96%30.03 "Hg10 mi
2:53 AM66 °FClear.No wind96%30.02 "Hg10 mi
1:53 AM67 °FClear.No wind93%30.02 "Hg10 mi
12:53 AM67 °FClear.No wind93%30.02 "Hg10 mi
11:53 PM
Sat, Sep 24
69 °FClear.No wind87%30.02 "Hg10 mi
10:53 PM70 °FClear.No wind87%30.02 "Hg10 mi
9:53 PM72 °FClear.No wind81%30.01 "Hg10 mi
8:53 PM74 °FClear.No wind79%30.00 "Hg10 mi
7:53 PM76 °FClear.No wind74%30.00 "Hg10 mi
6:53 PM84 °FSunny.3 mph59%29.99 "Hg10 mi
5:53 PM91 °FSunny.3 mph36%29.98 "Hg10 mi
4:53 PM91 °FSunny.No wind33%29.99 "Hg10 mi
3:53 PM92 °FSunny.5 mph36%30.00 "Hg10 mi
2:53 PM91 °FPassing clouds.5 mph34%30.02 "Hg10 mi
1:53 PM91 °FSunny.3 mph38%30.06 "Hg10 mi
12:53 PM87 °FSunny.5 mph46%30.07 "Hg10 mi
11:53 AM85 °FSunny.5 mph53%30.09 "Hg10 mi
10:53 AM80 °FSunny.No wind64%30.10 "Hg10 mi
9:53 AM75 °FSunny.No wind74%30.10 "Hg10 mi
8:53 AM70 °FSunny.No wind84%30.09 "Hg10 mi
7:53 AM63 °FSunny.No wind97%30.08 "Hg10 mi
6:53 AM63 °FClear.No wind93%30.05 "Hg10 mi
Weather by CustomWeather, © 2016

See weather overviewHow to use our weather pages